Regional Weather Roundup
Issued by NWS

Home | Current Version | Previous Version | Graphics & Text | Print | Product List | Glossary On
Versions: 1 2 3 4 5 6 7 8 9 10 11 12 13 14 15 16 17 18 19 20 21 22 23 24 25 26 27 28 29 30 31 32 33 34 35 36 37 38 39 40 41 42 43 44 45 46 47 48 49 50
411
ASUS45 KTFX 270210
RWRMT
MONTANA REGIONAL WEATHER ROUNDUP
NATIONAL WEATHER SERVICE GREAT FALLS MT
700 PM MST SUN FEB 26 2017

NOTE: "FAIR" INDICATES FEW OR NO CLOUDS BELOW 12000 FEET WITH NO
SIGNIFICANT WEATHER AND/OR OBSTRUCTIONS TO VISIBILITY.

MTZ001>007-043-270300-
WEST OF THE DIVIDE

CITY           SKY/WX    TMP DP  RH WIND       PRES   REMARKS
KALISPELL      FLURRIES  22  14  71 N18       29.64S WCI   7
MISSOULA       CLOUDY    30  27  88 SE5       29.60S
BUTTE          CLOUDY    23  12  62 S13       29.54F WCI  11
MULLAN PASS    LGT SNOW  18  17  96 CALM      29.47S FOG
ANACONDA         N/A     25  18  74 SE8       29.55F WCI  16
DEER LODGE       N/A     27  18  69 S9        29.58S WCI  17
EUREKA           N/A     25  16  68 NW5       29.67S
HAMILTON         N/A     28  23  80 S7          N/A  WCI  21
LIBBY            N/A     27  25  93 NW6       29.63R WCI  20
PLAINS           N/A     29  23  78 CALM      29.64
RONAN            N/A     25  21  84 N10       29.66S WCI  15
$$

MTZ008-052>055-270300-
SOUTHWEST MONTANA

CITY           SKY/WX    TMP DP  RH WIND       PRES   REMARKS
BOZEMAN        CLOUDY    27  20  75 E9        29.61S WCI  18
DILLON         CLOUDY    25   7  46 S13G24    29.57S WCI  14
W YELLOWSTONE  LGT SNOW  16  12  86 S6        29.62F VSB 1   WCI   7
ENNIS          CLOUDY    25   9  50 S21       29.65S WCI  10
THREE FORKS      N/A     28  28 100 S23       29.63F WCI  14
$$

MTZ009-010-012-014-046-048-049-054-270300-
EAST SLOPES AND CENTRAL MONTANA

CITY           SKY/WX    TMP DP  RH WIND       PRES   REMARKS
CUT BANK       CLOUDY    12   6  77 N12       29.73S WCI  -2
GREAT FALLS    LGT SNOW  17  14  88 N10       29.70F FOG     WCI   5
MALMSTROM AFB  LGT SNOW  18  17  96 N9        29.72F WCI   7
HELENA         LGT SNOW  20  18  92 NW9       29.66S FOG     WCI   9
AUGUSTA        LGT SNOW  11   8  89 N13       29.67F WCI  -4
BOWMANS CRNR   FLURRIES  12  10  92 NE9       29.66F WCI   0
CHOTEAU          N/A     12   9  85 NW8       29.73S WCI   1
CONRAD           N/A     13  10  87 NW1       29.78F
POWER          FLURRIES  15  12  88 N9        29.70F WCI   3
RAYNESFORD     FLURRIES  17  15  91 W6        29.68F WCI   8
ULM            LGT SNOW  18  15  88 MISG      29.72S
$$

MTZ011-013-016-021-045-047-050-051-270300-
NORTH CENTRAL MONTANA

CITY           SKY/WX    TMP DP  RH WIND       PRES   REMARKS
HAVRE          CLOUDY    20  15  81 N3        29.79F HAZE
LEWISTOWN      LGT SNOW  19  17  92 N3        29.66F VSB 1
N BAR RANCH    SNOW      19  18  93 E9        29.67S VSB 1/2 WCI   9
CHINOOK          N/A     21  10  63 W3        29.80F
DENTON         LGT SNOW  19  15  87 N9        29.68S WCI   7
FORT BENTON      N/A     21  14  73 MISG      29.78S
GEYSER         LGT SNOW  16  13  91 NE6       29.68F WCI   7
GRASS RANGE    LGT SNOW  19  18  94 NE12      29.66S WCI   7
JUDITH GAP     LGT SNOW  17  15  91 N17       29.62F WCI   1
ROY            LGT SNOW  19  17  93 MISG      29.70S
STANFORD       LGT SNOW  15  14  96 NE5       29.66F FOG
WINIFRED       LGT SNOW  18  17  94 NE10      29.70S WCI   6
$$

MTZ017>020-022>027-061-062-270300-
NORTHEAST MONTANA

CITY           SKY/WX    TMP DP  RH WIND       PRES   REMARKS
GLASGOW        MOCLDY    19  13  77 N3        29.80R
JORDAN           N/A     22  14  71 NE10      29.76S WCI  11
SIDNEY         CLOUDY    19  15  84 W5        29.82R
WOLF POINT     CLEAR     17  11  77 NW3       29.82S
PLENTYWOOD       N/A     16  10  79 SW3       29.78S
POPLAR           N/A     18  10  73 CALM      29.82R
SCOBEY           N/A     14   4  64 NW2       29.77
$$

MTZ028>42-056>058-270300-
SOUTHCENTRAL AND SOUTHEAST MONTANA

CITY           SKY/WX    TMP DP  RH WIND       PRES   REMARKS
BAKER          CLOUDY    21  16  81 N5        29.77S
BILLINGS       MOCLDY    28  21  75 NE10      29.65F WCI  19
LIVINGSTON     CLOUDY    28   8  43 SW28G40   29.57F WCI  13
MILES CITY     CLOUDY    27  16  63 NE9       29.76S WCI  18
BIG TIMBER     CLOUDY    28  14  54 CALM      29.63S
EKALAKA          N/A     21  15  78 CALM      29.74
FORSYTH          N/A     28  19  69 E9        29.74R WCI  20
HARLOWTON      LGT SNOW  20  17  88 N17       29.62S WCI   6
LAUREL           N/A     29  20  69 N7        29.67F WCI  22
ROUNDUP          N/A     26  19  74 N6        29.63S WCI  19
$$

REGIONAL REPORTS...DAKOTAS

CITY           SKY/WX    TMP DP  RH WIND       PRES   REMARKS
WILLISTON      CLOUDY    22  17  81 SW5       29.81R
MINOT          MOCLDY    17  10  74 SW10      29.80S WCI   5
DICKINSON      CLEAR     19  12  74 N5        29.77R
BEACH            N/A    N/A N/A N/A MISG        N/A
CROSBY           N/A     12  10  92 W6        29.80S WCI   3
TIOGA          FLURRIES  19  19 100 NW3       29.79S
WATFORD CITY   CLOUDY    18  12  79 S5        29.80S
BISMARCK       CLOUDY    20  14  77 NE5       29.85R
GRAND FORKS    CLEAR     10   1  67 S3        29.89R
FARGO          CLOUDY    18  11  74 SE6       29.89F WCI  10
BUFFALO SD       N/A     24  19  81 NE8       29.70R WCI  15
RAPID CITY     CLOUDY    24  15  68 CALM      29.76R
$$

REGIONAL REPORTS...WYOMING/IDAHO/WASHINGTON

CITY           SKY/WX    TMP DP  RH WIND       PRES   REMARKS
GILLETTE       CLEAR     24  12  60 SW14      29.70S WCI  12
SHERIDAN       CLOUDY    27  14  58 SE10G16   29.66F WCI  17
BUFFALO WY     CLOUDY    23   1  38 S6        29.66F WCI  16
CODY           PTCLDY    25   9  50 S13       29.64S WCI  14
YELLOWSTONE LA   N/A     11   8  88 CALM      29.61S
IDAHO FALLS    CLOUDY    25  22  88 S7        29.70F WCI  17
SALMON         CLOUDY    30  16  55 E3        29.60S
BOISE          CLOUDY    32  29  88 E9        29.69F WCI  24
SPOKANE        LGT SNOW  30  28  92 CALM      29.64S FOG
$$

REGIONAL REPORTS...ALBERTA

CITY           SKY/WX    TMP DP  RH WIND       PRES   REMARKS
EDMONTON       PTCLDY     3  -4  72 S2        29.81F
CALGARY        FLURRIES  10   1  67 E5        29.76S
LETHBRIDGE     CLOUDY    14   3  62 N7        29.80S WCI   4
MEDICINE HAT   CLOUDY    14   5  67 N12       29.84R WCI   0
WATERTON GATE    N/A      9   3  78 NE5         N/A
MILK RIVER       N/A     14   7  73 N5          N/A
ONEFOUR          N/A     14  10  85 N10         N/A  WCI   1
$$

REGIONAL REPORTS...SASKATCHEWAN

CITY           SKY/WX    TMP DP  RH WIND       PRES   REMARKS
SWIFT CURRENT  FLURRIES  10   5  79 NW12      29.75S WCI  -4
REGINA         CLOUDY    14   5  67 NW20G29   29.77R WCI  -3
SASKATOON      CLEAR      0  -8  71 NW10      29.85R WCI -17
VAL MARIE        N/A     18  12  79 N7          N/A  WCI   8
ROCKGLEN         N/A     10   7  85 W7          N/A  WCI   0
ASSINIBOIA       N/A      3  -2  78 W3          N/A
$$




USA.gov is the U.S. government's official web portal to all federal, state and local government web resources and services.